Port Hedland, Western Australia

10:42 PM AWST on February 06, 2016 (GMT +0800)
Port Hedland International

Weather History for YPPD - March, 2013

Change the Weather History Date:

Thursday, March 21, 2013

  Actual Average Record
Temperature  
Mean Temperature 90 °F -  
Max Temperature 101 °F 96 °F 107 °F (1998)
Min Temperature 79 °F 72 °F 73 °F (2012)
Cooling Degree Days 25    
Growing Degree Days 40 (Base 50)    
Moisture  
Dew Point 79 °F    
Average Humidity 74    
Maximum Humidity 100    
Minimum Humidity 36    
Precipitation  
Precipitation 0.00 in 0.04 in - ()
Sea Level Pressure  
Sea Level Pressure 29.75 in    
Wind  
Wind Speed 5 mph ()    
Max Wind Speed 10 mph    
Max Gust Speed -    
Visibility 6.2 miles    
Events      
Averages and records for this station are not official NWS values.
T = Trace of Precipitation, MM = Missing Value Source: Averaged Metar Reports

Daily Weather History Graph

Daily Weather History Graph

Search for Another Location

Airport or City:

Trip Planner

Search our weather history database for the weather conditions in past years. The results will help you decide how hot, cold, wet, or windy it might be!

Date:

Astronomy

Mar. 21, 2013 Rise Set
Actual Time 6:09 AM AWST 6:15 PM AWST
Civil Twilight 5:47 AM AWST 6:37 PM AWST
Nautical Twilight 5:21 AM AWST 7:03 PM AWST
Astronomical Twilight 4:56 AM AWST 7:28 PM AWST
Moon 1:50 PM AWST (3/21) 12:26 AM AWST (3/21)
Length of Visible Light 12h 50m
Length of Day
12h 06m
Waxing Gibbous, 64% of the Moon is Illuminated
Mar 21
Waxing Gibbous
Mar 27
Full
Apr 3
Last Quarter
Apr 10
New
Apr 18
First Quarter

Hourly Weather History & Observations

Time (AWST) Temp. Heat Index Dew Point Humidity Pressure Visibility Wind Dir Wind Speed Gust Speed Precip Events Conditions
12:00 AM 83 °F - 80 °F 89% 29.80 in - West 5.8 mph - -  
12:00 AM 82.4 °F 94.0 °F 80.6 °F 94% 29.80 in 6.2 mi West 5.8 mph - N/A   Unknown
12:30 AM 82.4 °F 92.4 °F 78.8 °F 89% 29.80 in 6.2 mi Calm Calm - N/A   Unknown
1:00 AM 82.4 °F 94.0 °F 80.6 °F 94% 29.77 in 6.2 mi Calm Calm - N/A   Unknown
1:30 AM 82.4 °F 94.0 °F 80.6 °F 94% 29.77 in 6.2 mi Calm Calm - N/A   Unknown
2:00 AM 82 °F - 79 °F 89% 29.78 in - WSW 1.2 mph - -  
2:00 AM 82.4 °F 92.4 °F 78.8 °F 89% 29.77 in 6.2 mi WSW 1.2 mph - N/A   Unknown
2:30 AM 80.6 °F 88.1 °F 78.8 °F 94% 29.77 in 6.2 mi East 3.5 mph - N/A   Unknown
3:00 AM 80 °F - 79 °F 96% 29.76 in - East 2.3 mph - -  
3:00 AM 80.6 °F 88.1 °F 78.8 °F 94% 29.74 in 6.2 mi East 2.3 mph - N/A   Unknown
3:30 AM 80.6 °F 88.1 °F 78.8 °F 94% 29.74 in 6.2 mi South 5.8 mph - N/A   Unknown
4:00 AM 80.6 °F 88.1 °F 78.8 °F 94% 29.74 in 6.2 mi SSE 3.5 mph - N/A   Unknown
4:30 AM 80.6 °F 88.1 °F 78.8 °F 94% 29.74 in 6.2 mi SSE 3.5 mph - N/A   Unknown
5:00 AM 79 °F - 78 °F 94% 29.77 in - East 5.8 mph - -  
5:00 AM 78.8 °F - 77.0 °F 94% 29.77 in 6.2 mi East 5.8 mph - N/A   Unknown
5:30 AM 78.8 °F - 77.0 °F 94% 29.77 in 6.2 mi East 5.8 mph - N/A   Unknown
6:00 AM 80 °F - 78 °F 91% 29.79 in - ESE 3.5 mph - -  
6:00 AM 78.8 °F - 78.8 °F 100% 29.77 in 6.2 mi ESE 3.5 mph - N/A   Unknown
6:30 AM 80.6 °F 88.1 °F 78.8 °F 94% 29.77 in 6.2 mi ESE 4.6 mph - N/A   Unknown
7:00 AM 80.6 °F 88.1 °F 78.8 °F 94% 29.77 in 6.2 mi ENE 3.5 mph - N/A   Unknown
7:30 AM 84.2 °F 98.3 °F 80.6 °F 89% 29.80 in 6.2 mi East 5.8 mph - N/A   Unknown
8:00 AM 86 °F - 80 °F 79% 29.82 in - SE 5.8 mph - -  
8:00 AM 86.0 °F 101.9 °F 80.6 °F 84% 29.80 in 6.2 mi SE 5.8 mph - N/A   Unknown
8:30 AM 87.8 °F 108.2 °F 82.4 °F 84% 29.83 in 6.2 mi East 5.8 mph - N/A   Unknown
9:00 AM 89 °F - 82 °F 75% 29.83 in - NNE 6.9 mph - -  
9:00 AM 89.6 °F 111.1 °F 82.4 °F 79% 29.83 in 6.2 mi NNE 6.9 mph - N/A   Unknown
9:30 AM 89.6 °F 111.1 °F 82.4 °F 79% 29.83 in 6.2 mi NNE 5.8 mph - N/A   Unknown
10:00 AM 91.4 °F 114.3 °F 82.4 °F 75% 29.80 in 6.2 mi North 2.3 mph - N/A   Unknown
10:30 AM 93.2 °F 117.1 °F 82.4 °F 71% 29.80 in 6.2 mi NE 4.6 mph - N/A   Unknown
11:00 AM 94 °F - 80 °F 55% 29.80 in - East 3.5 mph - -  
11:00 AM 95.0 °F 115.8 °F 80.6 °F 63% 29.80 in 6.2 mi East 3.5 mph - N/A   Unknown
11:30 AM 96.8 °F 118.6 °F 80.6 °F 60% 29.77 in 6.2 mi NE 5.8 mph - N/A   Unknown
12:00 PM 98 °F - 79 °F 46% 29.77 in - North 6.9 mph - -  
12:00 PM 98.6 °F 117.2 °F 78.8 °F 53% 29.77 in 6.2 mi North 6.9 mph - N/A   Unknown
12:30 PM 100.4 °F 113.6 °F 75.2 °F 44% 29.74 in 6.2 mi NE 8.1 mph - N/A   Unknown
1:00 PM 100.4 °F 116.5 °F 77.0 °F 47% 29.71 in 6.2 mi NNE 8.1 mph - N/A   Unknown
1:30 PM 100.4 °F 119.5 °F 78.8 °F 50% 29.71 in 6.2 mi North 8.1 mph - N/A   Unknown
2:00 PM 100 °F - 78 °F 40% 29.72 in - North 9.2 mph - -  
2:00 PM 100.4 °F 116.5 °F 77.0 °F 47% 29.71 in 6.2 mi North 9.2 mph - N/A   Unknown
2:30 PM 98.6 °F 111.7 °F 75.2 °F 47% 29.68 in 6.2 mi North 10.4 mph - N/A   Unknown
3:00 PM 100 °F - 75 °F 36% 29.70 in - NNW 10.4 mph - -  
3:00 PM 100.4 °F 113.6 °F 75.2 °F 44% 29.68 in 6.2 mi NNW 10.4 mph - N/A   Unknown
3:30 PM 100.4 °F 113.6 °F 75.2 °F 44% 29.68 in 6.2 mi NNW 10.4 mph - N/A   Unknown
4:00 PM 100.4 °F 111.9 °F 73.4 °F 42% 29.68 in 6.2 mi NNW 9.2 mph - N/A   Unknown
4:30 PM 96.8 °F 109.6 °F 75.2 °F 50% 29.68 in 6.2 mi North 10.4 mph - N/A   Unknown
5:00 PM 97 °F - 76 °F 41% 29.70 in - NNW 10.4 mph - -  
5:00 PM 96.8 °F 109.6 °F 75.2 °F 50% 29.68 in 6.2 mi NNW 10.4 mph - N/A   Unknown
5:30 PM 95.0 °F 112.2 °F 78.8 °F 59% 29.68 in 6.2 mi NW 10.4 mph - N/A   Unknown
6:00 PM 92 °F - 76 °F 51% 29.70 in - WNW 8.1 mph - -  
6:00 PM 91.4 °F 105.1 °F 77.0 °F 63% 29.68 in 6.2 mi WNW 8.1 mph - N/A   Unknown
6:30 PM 89.6 °F 102.2 °F 77.0 °F 66% 29.71 in 6.2 mi WNW 8.1 mph - N/A   Unknown
7:00 PM 87.8 °F 102.5 °F 78.8 °F 75% 29.71 in 6.2 mi NW 9.2 mph - N/A   Unknown
7:30 PM 87.8 °F 102.5 °F 78.8 °F 75% 29.71 in 6.2 mi WNW 9.2 mph - N/A   Unknown
8:00 PM 88 °F - 81 °F 74% 29.74 in - WNW 10.4 mph - -  
8:00 PM 87.8 °F 104.9 °F 80.6 °F 79% 29.74 in 6.2 mi WNW 10.4 mph - N/A   Unknown
8:30 PM 87.8 °F 104.9 °F 80.6 °F 79% 29.74 in 6.2 mi WNW 6.9 mph - N/A   Unknown
9:00 PM 86 °F - 80 °F 78% 29.76 in - West 5.8 mph - -  
9:00 PM 86.0 °F 101.9 °F 80.6 °F 84% 29.74 in 6.2 mi West 5.8 mph - N/A   Unknown
9:30 PM 86.0 °F 101.9 °F 80.6 °F 84% 29.77 in 6.2 mi WSW 5.8 mph - N/A   Unknown
10:00 PM 86.0 °F 101.9 °F 80.6 °F 84% 29.77 in 6.2 mi West 5.8 mph - N/A   Unknown
10:30 PM 84.2 °F 98.3 °F 80.6 °F 89% 29.77 in 6.2 mi West 4.6 mph - N/A   Unknown
11:00 PM 84 °F - 80 °F 83% 29.77 in - NW 5.8 mph - -  
11:00 PM 84.2 °F 98.3 °F 80.6 °F 89% 29.77 in 6.2 mi NW 5.8 mph - N/A   Unknown
11:30 PM 82.4 °F 92.4 °F 78.8 °F 89% 29.74 in 6.2 mi West 8.1 mph - N/A   Unknown